TimeMDT,TemperatureF,Dew PointF,Humidity,Sea Level PressureIn,VisibilityMPH,Wind Direction,Wind SpeedMPH,Gust SpeedMPH,PrecipitationIn,Events,Conditions,WindDirDegrees,DateUTC
12:53 AM,36.0,26.1,67,30.16,10.0,East,5.8,-,N/A,,Clear,80,2011-10-24 06:53:00
1:53 AM,34.0,25.0,70,30.14,10.0,SE,3.5,-,0.00,Snow,Light Snow,130,2011-10-24 07:53:00
2:53 AM,30.0,24.1,79,30.15,10.0,Calm,Calm,-,0.00,,Clear,0,2011-10-24 08:53:00
3:53 AM,30.0,24.1,79,30.15,10.0,Calm,Calm,-,0.00,,Clear,0,2011-10-24 09:53:00
4:53 AM,30.0,24.1,79,30.16,10.0,ENE,5.8,-,N/A,,Clear,60,2011-10-24 10:53:00
5:53 AM,30.9,24.1,76,30.17,10.0,ENE,6.9,-,N/A,,Clear,60,2011-10-24 11:53:00
7:53 AM,28.9,23.0,78,30.22,10.0,Calm,Calm,-,N/A,,Clear,0,2011-10-24 13:53:00
8:53 AM,41.0,27.0,57,30.20,10.0,Calm,Calm,-,N/A,,Clear,0,2011-10-24 14:53:00
9:53 AM,53.1,28.9,40,30.17,10.0,ENE,4.6,-,N/A,,Clear,70,2011-10-24 15:53:00
10:53 AM,61.0,27.0,27,30.14,10.0,Calm,Calm,-,N/A,,Clear,0,2011-10-24 16:53:00
11:53 AM,66.9,28.0,23,30.10,10.0,Calm,Calm,-,N/A,,Clear,0,2011-10-24 17:53:00
1:53 PM,72.0,24.1,17,30.04,10.0,SSW,11.5,-,N/A,,Clear,210,2011-10-24 19:53:00
2:53 PM,72.0,21.0,15,30.03,10.0,SSW,17.3,-,N/A,,Clear,210,2011-10-24 20:53:00
3:53 PM,71.1,15.1,12,30.01,10.0,West,15.0,21.9,N/A,,Clear,260,2011-10-24 21:53:00
4:53 PM,70.0,19.0,14,30.00,10.0,SSW,11.5,-,N/A,,Clear,200,2011-10-24 22:53:00
5:53 PM,66.9,19.9,17,30.01,10.0,West,4.6,-,N/A,,Clear,260,2011-10-24 23:53:00
6:53 PM,50.0,26.1,39,30.06,10.0,SE,6.9,-,N/A,,Clear,130,2011-10-25 00:53:00
8:53 PM,45.0,25.0,46,30.07,10.0,ENE,8.1,-,N/A,,Clear,60,2011-10-25 02:53:00
10:53 PM,44.1,26.1,49,30.03,10.0,Calm,Calm,-,N/A,,Clear,0,2011-10-25 04:53:00
11:53 PM,46.0,28.0,50,30.00,10.0,ENE,4.6,-,N/A,,Overcast,60,2011-10-25 05:53:00